Monroe, WI

7:00 AM CST on February 24, 2018 (GMT -0600)
Monroe Municipal

Weather History for KEFT - January, 2013

Change the Weather History Date:

Sunday, January 6, 2013

  Actual Average Record
Temperature  
Mean Temperature 23 °F -  
Max Temperature 32 °F 0 °F 51 °F (2012)
Min Temperature 14 °F - -20 °F (2014)
Degree Days  
Heating Degree Days 42    
Moisture  
Dew Point 19 °F    
Average Humidity 83    
Maximum Humidity 100    
Minimum Humidity 69    
Precipitation  
Precipitation 0.00 in - - ()
Sea Level Pressure  
Sea Level Pressure 30.09 in    
Wind  
Wind Speed 15 mph (West)    
Max Wind Speed 26 mph    
Max Gust Speed 24 mph    
Visibility 10 miles    
Events      
Averages and records for this station are not official NWS values.
T = Trace of Precipitation, MM = Missing Value Source: NWS Daily Summary

Daily Weather History Graph

Daily Weather History Graph

Search for Another Location

Airport or City:

Trip Planner

Search our weather history database for the weather conditions in past years. The results will help you decide how hot, cold, wet, or windy it might be!

Date:

Astronomy

Jan. 06, 2013 Rise Set
Actual Time 7:28 AM CST 4:40 PM CST
Civil Twilight 6:56 AM CST 5:12 PM CST
Nautical Twilight 6:21 AM CST 5:47 PM CST
Astronomical Twilight 5:47 AM CST 6:21 PM CST
Moon 1:39 AM CST (1/6) 12:10 PM CST (1/6)
Length of Visible Light 10h 15m
Length of Day
9h 12m
Waning Crescent, 33% of the Moon is Illuminated
Jan 6
Waning Crescent
Jan 11
New
Jan 18
First Quarter
Jan 26
Full
Feb 3
Last Quarter

Hourly Weather History & Observations

Time (CST) Temp. Windchill Dew Point Humidity Pressure Visibility Wind Dir Wind Speed Gust Speed Precip Events Conditions
12:15 AM 32.0 °F 18.4 °F 32.0 °F 100% 29.86 in 10.0 mi West 26.5 mph - N/A   Overcast
12:35 AM 32.0 °F 19.2 °F 30.2 °F 93% 29.86 in 10.0 mi West 23.0 mph - N/A   Mostly Cloudy
12:55 AM 30.2 °F 18.1 °F 26.6 °F 86% 29.86 in 10.0 mi West 18.4 mph - N/A   Mostly Cloudy
1:15 AM 30.2 °F 16.8 °F 26.6 °F 86% 29.87 in 10.0 mi West 23.0 mph - N/A   Overcast
1:35 AM 28.4 °F 15.8 °F 19.4 °F 69% 29.88 in 10.0 mi West 18.4 mph 24.2 mph N/A   Overcast
1:55 AM 26.6 °F 13.4 °F 19.4 °F 74% 29.88 in 10.0 mi West 18.4 mph 24.2 mph N/A   Overcast
2:15 AM 26.6 °F 14.3 °F 19.4 °F 74% 29.90 in 10.0 mi West 16.1 mph 21.9 mph N/A   Overcast
2:35 AM 26.6 °F 15.7 °F 19.4 °F 74% 29.90 in 10.0 mi West 12.7 mph - N/A   Overcast
2:55 AM 24.8 °F 14.0 °F 19.4 °F 80% 29.91 in 10.0 mi West 11.5 mph 18.4 mph N/A   Overcast
3:15 AM 24.8 °F 14.0 °F 19.4 °F 80% 29.91 in 10.0 mi West 11.5 mph 18.4 mph N/A   Mostly Cloudy
3:35 AM 24.8 °F 12.4 °F 19.4 °F 80% 29.92 in 10.0 mi West 15.0 mph 18.4 mph N/A   Overcast
3:55 AM 23.0 °F 11.1 °F 19.4 °F 86% 29.92 in 10.0 mi West 12.7 mph 19.6 mph N/A   Scattered Clouds
4:15 AM 23.0 °F 11.1 °F 19.4 °F 86% 29.93 in 10.0 mi West 12.7 mph - N/A   Clear
4:35 AM 23.0 °F 10.1 °F 19.4 °F 86% 29.93 in 10.0 mi West 15.0 mph - N/A   Clear
4:55 AM 21.2 °F 8.3 °F 17.6 °F 86% 29.93 in 10.0 mi WNW 13.8 mph - N/A   Clear
5:15 AM 21.2 °F 9.5 °F 17.6 °F 86% 29.94 in 10.0 mi West 11.5 mph - N/A   Clear
5:35 AM 21.2 °F 9.5 °F 17.6 °F 86% 29.95 in 10.0 mi West 11.5 mph 18.4 mph N/A   Scattered Clouds
5:55 AM 21.2 °F 8.9 °F 17.6 °F 86% 29.96 in 10.0 mi WNW 12.7 mph 18.4 mph N/A   Clear
6:15 AM 21.2 °F 8.3 °F 15.8 °F 80% 29.97 in 10.0 mi WNW 13.8 mph 19.6 mph N/A   Clear
6:35 AM 21.2 °F 8.9 °F 15.8 °F 80% 29.98 in 10.0 mi West 12.7 mph - N/A   Clear
6:55 AM 21.2 °F 7.8 °F 15.8 °F 80% 29.99 in 10.0 mi West 15.0 mph 18.4 mph N/A   Scattered Clouds
7:15 AM 21.2 °F 8.9 °F 15.8 °F 80% 30.00 in 10.0 mi WNW 12.7 mph 18.4 mph N/A   Scattered Clouds
7:35 AM 19.4 °F 6.0 °F 17.6 °F 93% 30.01 in 10.0 mi West 13.8 mph - N/A   Scattered Clouds
7:55 AM 21.2 °F 7.3 °F 17.6 °F 86% 30.03 in 10.0 mi West 16.1 mph - N/A   Mostly Cloudy
8:15 AM 21.2 °F 8.3 °F 19.4 °F 93% 30.03 in 10.0 mi West 13.8 mph 19.6 mph N/A   Overcast
8:35 AM 21.2 °F 6.8 °F 19.4 °F 93% 30.05 in 10.0 mi West 17.3 mph 23.0 mph N/A   Overcast
8:55 AM 21.2 °F 7.8 °F 19.4 °F 93% 30.06 in 10.0 mi WNW 15.0 mph - N/A   Overcast
9:15 AM 23.0 °F 9.6 °F 19.4 °F 86% 30.07 in 10.0 mi West 16.1 mph 21.9 mph N/A   Scattered Clouds
9:35 AM 23.0 °F 10.1 °F 19.4 °F 86% 30.08 in 10.0 mi WNW 15.0 mph 19.6 mph N/A   Mostly Cloudy
9:55 AM 24.8 °F 13.4 °F 19.4 °F 80% 30.09 in 10.0 mi WNW 12.7 mph 20.7 mph N/A   Scattered Clouds
10:15 AM 26.6 °F 15.7 °F 19.4 °F 74% 30.10 in 10.0 mi WNW 12.7 mph 17.3 mph N/A   Scattered Clouds
10:35 AM 26.6 °F 16.2 °F 19.4 °F 74% 30.10 in 10.0 mi West 11.5 mph - N/A   Scattered Clouds
10:55 AM 26.6 °F 14.7 °F 19.4 °F 74% 30.12 in 10.0 mi West 15.0 mph 19.6 mph N/A   Clear
11:35 AM 26.6 °F 15.2 °F 19.4 °F 74% 30.12 in 10.0 mi West 13.8 mph - N/A   Overcast
11:55 AM 26.6 °F 15.2 °F 19.4 °F 74% 30.12 in 10.0 mi WNW 13.8 mph 20.7 mph N/A   Overcast
12:15 PM 26.6 °F 15.2 °F 19.4 °F 74% 30.12 in 10.0 mi WNW 13.8 mph - N/A   Mostly Cloudy
12:35 PM 28.4 °F 17.5 °F 19.4 °F 69% 30.12 in 10.0 mi WNW 13.8 mph 17.3 mph N/A   Scattered Clouds
12:55 PM 28.4 °F 18.5 °F 19.4 °F 69% 30.12 in 10.0 mi WNW 11.5 mph - N/A   Clear
1:15 PM 28.4 °F 17.0 °F 19.4 °F 69% 30.14 in 10.0 mi West 15.0 mph - N/A   Clear
1:35 PM 28.4 °F 18.5 °F 19.4 °F 69% 30.14 in 10.0 mi West 11.5 mph - N/A   Clear
1:55 PM 28.4 °F 18.5 °F 19.4 °F 69% 30.15 in 10.0 mi West 11.5 mph - N/A   Clear
2:15 PM 28.4 °F 21.2 °F 19.4 °F 69% 30.14 in 10.0 mi West 6.9 mph - N/A   Clear
2:35 PM 28.4 °F 19.7 °F 19.4 °F 69% 30.15 in 10.0 mi West 9.2 mph - N/A   Clear
2:55 PM 26.6 °F 16.8 °F 19.4 °F 74% 30.16 in 10.0 mi West 10.4 mph - N/A   Clear
3:15 PM 26.6 °F 16.8 °F 19.4 °F 74% 30.18 in 10.0 mi West 10.4 mph - N/A   Clear
3:35 PM 26.6 °F 16.2 °F 19.4 °F 74% 30.19 in 10.0 mi West 11.5 mph - N/A   Clear
3:55 PM 26.6 °F 17.5 °F 19.4 °F 74% 30.20 in 10.0 mi West 9.2 mph - N/A   Clear
4:15 PM 23.0 °F 11.7 °F 19.4 °F 86% 30.20 in 10.0 mi WSW 11.5 mph - N/A   Clear
4:35 PM 23.0 °F 12.4 °F 21.2 °F 93% 30.22 in 10.0 mi WSW 10.4 mph - N/A   Clear
4:55 PM 21.2 °F 10.9 °F 19.4 °F 93% 30.22 in 10.0 mi WSW 9.2 mph - N/A   Clear
5:15 PM 21.2 °F 10.1 °F 19.4 °F 93% 30.22 in 10.0 mi West 10.4 mph - N/A   Clear
5:55 PM 21.2 °F 8.9 °F 19.4 °F 93% 30.23 in 10.0 mi West 12.7 mph - N/A   Clear
6:15 PM 21.2 °F 11.7 °F 17.6 °F 86% 30.24 in 10.0 mi West 8.1 mph - N/A   Clear
6:35 PM 19.4 °F 10.4 °F 17.6 °F 93% 30.24 in 10.0 mi WSW 6.9 mph - N/A   Clear
6:55 PM 19.4 °F 11.5 °F 17.6 °F 93% 30.24 in 10.0 mi SW 5.8 mph - N/A   Clear
7:15 PM 19.4 °F 9.5 °F 17.6 °F 93% 30.24 in 7.0 mi WSW 8.1 mph - N/A   Clear
7:35 PM 21.2 °F 10.1 °F 17.6 °F 86% 30.25 in 10.0 mi WSW 10.4 mph - N/A   Clear
7:55 PM 19.4 °F 9.5 °F 15.8 °F 86% 30.25 in 10.0 mi SW 8.1 mph - N/A   Clear
8:15 PM 19.4 °F 9.5 °F 17.6 °F 93% 30.25 in 10.0 mi SW 8.1 mph - N/A   Clear
8:35 PM 17.6 °F 9.3 °F 17.6 °F 100% 30.25 in 10.0 mi SSW 5.8 mph - N/A   Clear
8:55 PM 17.6 °F 9.3 °F 15.8 °F 93% 30.24 in 10.0 mi SSW 5.8 mph - N/A   Clear
9:15 PM 17.6 °F 8.2 °F 15.8 °F 93% 30.25 in 7.0 mi SW 6.9 mph - N/A   Clear
9:35 PM 17.6 °F 8.2 °F 15.8 °F 93% 30.25 in 10.0 mi SW 6.9 mph - N/A   Clear
10:35 PM 15.8 °F 5.1 °F 12.2 °F 86% 30.26 in 10.0 mi SSW 8.1 mph - N/A   Clear
10:55 PM 15.8 °F 5.1 °F 14.0 °F 93% 30.26 in 10.0 mi SSW 8.1 mph - N/A   Clear
11:35 PM 14.0 °F 2.9 °F 12.2 °F 93% 30.25 in 10.0 mi SSW 8.1 mph - N/A   Clear
11:55 PM 14.0 °F 2.9 °F 14.0 °F 100% 30.24 in 10.0 mi SSW 8.1 mph - N/A   Clear